Tracking 19242 objects as of 20-Sep-2018
HD Live streaming from Space Station
objects crossing your sky now

OSIRIS-3U

Track OSIRIS-3U now!
10-day predictions
OSIRIS-3U is classified as:


NORAD ID: 43027
Int'l Code: 1998-067NL
Perigee: 363.5 km
Apogee: 368.2 km
Inclination: 51.6 °
Period: 91.7 minutes
Semi major axis: 6736 km
RCS: Unknown
Launch date: November 20, 1998
Source: United States (US)
Launch site: TYURATAM MISSILE AND SPACE COMPLEX (TTMTR)
Uplink (MHz):
Downlink (MHz): 437.505
Beacon (MHz):
Mode: 9k6-38k4 GMSK
Call sign:
Status: Inactive

aabbcc
Your satellite tracking list
Your tracking list is empty




NASA's NSSDC Master Catalog

Two Line Element Set (TLE):
1 43027U 98067NL  18263.43242892  .00031026  00000-0  25586-3 0  9991
2 43027  51.6352 246.6350 0003453 110.0309 250.1060 15.70056434 47353
Source of the keplerian elements: AFSPC